Regional Weather Roundup
Issued by NWS Newport/Morehead, NC

Current Version | Previous Version | Text Only | Print | Product List | Glossary Off
Versions: 1 2 3 4 5 6 7 8 9 10 11 12 13 14 15 16 17 18 19 20 21 22 23 24 25 26 27 28 29 30 31 32 33 34 35 36 37 38 39 40 41 42 43 44 45 46 47 48 49 50
000 ASUS42 KMHX 261422 RWRMHX WEATHER ROUNDUP FOR EASTERN NORTH CAROLINA NATIONAL WEATHER SERVICE NEWPORT/MOREHEAD CITY NC 900 AM EST MON JAN 26 2015 NOTE: "FAIR" INDICATES FEW OR NO CLOUDS BELOW 12,000 FEET WITH NO SIGNIFICANT WEATHER AND/OR OBSTRUCTIONS TO VISIBILITY NCZ015>017-031-032-045>047-102-103-261500- NORTH COAST CITY SKY/WX TMP DP RH WIND PRES REMARKS EDENTON CLOUDY 43 41 95 CALM 29.69F ELIZABETH CITY CLOUDY 44 41 89 CALM 29.70F KITTY HAWK CLOUDY 47 46 93 CALM 29.68S MANTEO CLOUDY 48 45 87 N5 29.69S $$ NCZ045>047-081-094-103-104-261500- CENTRAL COAST CITY SKY/WX TMP DP RH WIND PRES REMARKS FRISCO CLOUDY 50 45 83 CALM 29.68F SWANQUARTER NOT AVBL $$ NCZ095-097-098-100-101-261500- SOUTHERN COAST CITY SKY/WX TMP DP RH WIND PRES REMARKS BEAUFORT CLOUDY 46 44 93 NW3 29.67F CEDAR ISLAND NOT AVBL JACKSONVILLE CLOUDY 45 43 93 SW8 29.66F PINEY ISLAND N/A N/A N/A N/A MISG 29.67F WILMINGTON CLOUDY 48 45 89 W6 29.65F $$ NCZ011>013-027>030-043-044-078>080-089-090>093-098-261500- COASTAL PLAIN CITY SKY/WX TMP DP RH WIND PRES REMARKS AHOSKIE MOSUNNY 36 35 96 N5 29.70F CLINTON CLOUDY 43 42 99 CALM 29.67S ELIZABETHTOWN CLOUDY 43 42 95 CALM 29.65F GOLDSBORO PTSUNNY 41 41 100 NE6 29.65F GREENVILLE MOSUNNY 37 37 100 CALM 29.71F FOG HAVELOCK CLOUDY 42 40 92 E3 29.67F KENANSVILLE MOSUNNY 39 39 100 CALM 29.66F KINSTON MOSUNNY 39 39 100 N6 29.67F FOG NEW BERN CLOUDY 45 41 86 CALM 29.67F RICHLANDS CLOUDY 45 41 87 CALM 29.65F ROCKY MOUNT CLOUDY 40 37 89 N8 29.70S WASHINGTON PTSUNNY 40 39 96 E3 29.67F WHITEVILLE CLOUDY 46 43 91 CALM 29.66F $$ AMZ130-135-150-152-154-156-158-170-250-252-270-ANZ085-086-088-633-658-670-261500- MARINE OBSERVATIONS STATION/POSITION TIME TEMP WIND PRES WAVE SWELL AIR SEA DIR/SP/G HT/PER HT/PER (UTC) (F) (DEG/KT/KT) (MB) (FT/S) (FT/S) CHESAPEAKE LIGHT 1400 46 60/ 11/ 12 1006.2 64 E VA BEACH 1400 54 52 40/ 10/ 14 1004.8 3/ 8 2/ 8 DUCK 1400 46 44 20/ 5/ 6 1004.4 2 E DUCK 1400 43 N/A 2/10 10 NE DUCK 1400 44 N/A 2/ 9 2/12 OREGON INLET 1400 47 46 300/ 6/ 7 1004.9 13E OREGON INLT 1400 46 N/A 2/10 HATTERAS CG 1400 51 54 310/ 3/ 3 1004.9 DIAMOND BUOY 1400 58 69 300/ 12/ 14 1004.7 4/ 9 2/ 9 17 S OCRACOKE NOT AVBL CAPE LOOKOUT 1400 49 350/ 8/ 8 1004.4 BEAUFORT LAB 1400 47 50 10/ 3/ 4 1003.6 27 SE WRIGHTSVLE NOT AVBL 5 SE WRIGHTSVLE 1400 51 51 290/ 10/ 14 1003.2 225 S CAPE HAT 1347 71 72 220/ 25/ 31 1005.2 6/ 5 2/10 41 SE CHARLESTON 1400 57 69 270/ 21/ 25 1004.8 6/ 7 $$

USA.gov is the U.S. government's official web portal to all federal, state and local government web resources and services.